Regional Weather Roundup
Issued by NWS Charleston, SC

Home | Current Version | Previous Version | Text Only | Print | Product List | Glossary On
Versions: 1 2 3 4 5 6 7 8 9 10 11 12 13 14 15 16 17 18 19 20 21 22 23 24 25 26 27 28 29 30 31 32 33 34 35 36 37 38 39 40 41 42 43 44 45 46 47 48 49 50
000
ASUS42 KCHS 280925
RWRCHS

REGIONAL WEATHER ROUNDUP
NATIONAL WEATHER SERVICE CHARLESTON SC
400 AM EST FRI NOV 28 2014

NOTE: "FAIR" INDICATES FEW OR NO CLOUDS BELOW 12,000 FEET WITH NO
SIGNIFICANT WEATHER AND/OR OBSTRUCTIONS TO VISIBILITY.

NOT ALL STATIONS ARE QUALITY CONTROLLED BY THE NATIONAL
WEATHER SERVICE. USE DATA WITH CAUTION...ESPECIALLY
DEWPOINT OBSERVATIONS.

SCZ027-030-031-034>040-042>050-281000-
...SOUTHEAST SOUTH CAROLINA...

CITY           SKY/WX    TMP DP  RH WIND       PRES   REMARKS
N CHARLESTON   CLEAR     34  30  85 NW7       30.32S WCI  28
WATERFRONT PRK   N/A     39 N/A N/A NW6         N/A  WCI  35
MOUNT PLEASANT FAIR      37  32  81 N7        30.32R WCI  32
JOHNS ISLAND   SUNNY     37  34  87 NW6       30.32R WCI  33
PINOPOLIS        N/A     45  32  61 N18       30.22S
MONCKS CORNER  FAIR      43  32  65 N9G18     30.32R
SUMMERVILLE    FAIR      34  32  93 N3        30.34R
BEAUFORT MCAS  CLEAR     39  31  72 NW7       30.33R WCI  34
BEAUFORT ARPT  FAIR      39  34  81 NW10      30.32S WCI  32
HILTON HEAD IS CLEAR     39  32  75 NW9G17    30.33S WCI  33
WALTERBORO     SUNNY     36  32  87 NW5       30.34S WCI  32
ALLENDALE      FAIR      32  30  93 NW3       30.34S

...SOUTHERN MIDLANDS AND PEE DEE...

CITY           SKY/WX    TMP DP  RH WIND       PRES   REMARKS
GEORGETOWN     NOT AVBL
KINGSTREE      NOT AVBL
ORANGEBURG     CLEAR     34  28  79 CALM      30.33S
BARNWELL         N/A     32  30  93 W3        30.35S
AIKEN          FAIR      30  30 100 CALM      30.36S
MANNING        NOT AVBL
COLUMBIA       CLEAR     36  25  64 NW5       30.34R WCI  32
SUMTER         CLEAR     33  27  80 NW5       30.31S WCI  28
FLORENCE       CLEAR     34  26  72 N8        30.32S WCI  27
MYRTLE BEACH   CLEAR     37  27  65 NW10      30.30S WCI  30
N MYRTLE BEACH CLEAR     35  29  78 N6        30.29S WCI  30

$$

GAZ063-065-086>088-099>101-113>116-118-119-134>141-150-281000-
...SOUTHEAST GEORGIA...

CITY           SKY/WX    TMP DP  RH WIND       PRES   REMARKS
SAVANNAH ARPT  CLEAR     39  29  67 NW10      30.34S WCI  32
HUNTER AAF     CLEAR     38  30  73 NW9       30.31S WCI  31
FORT STEWART   CLEAR     37  29  73 NW5       30.33S WCI  33
STATESBORO     NOT AVBL
SYLVANIA       SUNNY     36  32  87 N5        30.35S WCI  32
CLAXTON        FAIR      34  19  55 NW5       30.35S WCI  30

...CSRA...CENTRAL AND FAR SOUTHEAST GEORGIA...

CITY           SKY/WX    TMP DP  RH WIND       PRES   REMARKS
THOMSON        CLEAR     30  30 100 CALM      30.40R
AUGUSTA-BUSH   CLEAR     29  26  89 CALM      30.36R
AUGUSTA-DANIEL CLEAR     35  27  72 N5        30.34S WCI  31
SWAINSBORO     FAIR      32  32 100 NW3       30.36S
VIDALIA        CLEAR     34  32  93 NW5       30.36R WCI  30
HAZLEHURST     FAIR      36  32  86 NW6       30.35R WCI  31
ALMA           CLEAR     34  29  82 N3        30.35S
WAYCROSS       CLEAR     36  33  87 N5        30.34F WCI  32
JESUP          FAIR      41  32  70 N7        30.34S
BAXLEY         FAIR      37  32  81 N5        30.35R WCI  34
BRUNSWICK      CLEAR     39  30  70 NW6       30.34S WCI  35
SAINT SIMONS   CLEAR     39  29  67 N9        30.32F WCI  33

$$

SCZ027-028-034-036>038-045-046-048>050-GAZ119-141-281000-
...LAKE AND SUPPLEMENTAL COASTAL OBSERVATIONS...

STATION/POSITION TIME  TEMP    WIND        PRES    WAVE   SWELL
                       AIR SEA DIR/SP/G            HT/PER HT/PER/DIR
                 (UTC) (F)     (DEG/KT/KT) (MB)    (FT/S) (FT/S/D)
UPR LAKE MARION  NOT AVBL
WINYAH BAY       0900   36     320/  4     1025.0S
LAKE MURRAY      0800   35     350/  3/  6 1026.4S
ACE BASIN NERRS  0900   36     320/  2     1026.0S
FORT PULASKI     0900   38     310/  8/ 11 1027.1S
SAPELO ISLAND    0900   39     330/  6     1027.0S

$$

ANZ835-935-AMZ111-154-330-350-352-354-370-450-454-472-281000-
...C-MAN AND BUOY OBSERVATIONS...

STATION/POSITION TIME  TEMP    WIND        PRES    WAVE   SWELL
                       AIR SEA DIR/SP/G            HT/PER HT/PER/DIR
                 (UTC) (F)     (DEG/KT/KT) (MB)    (FT/S) (FT/S/D)
FOLLY BEACH CMAN 0900   39     320/  5/  6 1026.6F
BUOY 41004       0900   51 72  350/ 19/ 23 1024.0R   6/ 5   2/10
BUOY 41008       0900   47 62  360/ 21/ 25 1025.7F   4/ 5
CAPERS NEARSHORE 0800   43     360/ 16/ 19   N/A
FRIPP NEARSHORE  NOT AVBL


STATION/POSITION TIME  TEMP    WIND        PRES    WAVE   SWELL
                       AIR SEA DIR/SP/G            HT/PER HT/PER/DIR
                 (UTC) (F)     (DEG/KT/KT) (MB)    (FT/S) (FT/S/D)
5E ST. MARYS GA  0900      62                N/A     5/ 4
FRYING PAN BUOY  0900   46 69  350/ 21/ 25 1024.3R   6/ 5   2/14
BUOY 41025       0900   45     320/ 21/ 25 1021.4R   6/ 7   3/ 70/ 8
CAPE LOOKOUT NC  0900   40     330/ 19/ 22 1023.5R
BUOY 41002       0801   59 72  320/ 25/ 31 1018.8S  11/ 9   2/340/15
BUOY 41010       0900   65 77  340/ 21/ 25 1020.7F   8/ 8   3/ 50/14
ST AUGUSTINE FL  0900   42     320/ 11/ 13 1026.6F


$$


USA.gov is the U.S. government's official web portal to all federal, state and local government web resources and services.